Погода в Тайманихе

Россия / Ивановская область     57°07′10″N   41°32′35″E
темп.,
°C
ветер,
м/с
пор.,
м/с
влажн.,
%
обл.,
%
осадки,
мм/ч
давл.,
гПа
погр.,
м
17 мая, пн
пн1700:00+13зюз22850 0.0 101423
03:00+12зюз11915 0.0 101511
06:00+15ююз0082100 0.0 101646
09:00+20вюв236619 0.0 1016532
12:00+24вюв235269 0.0 10161167
15:00+25в354858 0.0 10151518
18:00+23в596668 0.0 1015435
21:00+17вюв41186100 0.7 1015194
18 мая, вт
вт1800:00+16вюв4109599 0.7 1015178
03:00+15юв389378 0.6 1015127
06:00+16вюв3986100 0.0 1015168
09:00+22вюв596591 0.0 1015427
12:00+27юв5948100 0.0 10141244
15:00+27юв5949100 0.0 10141524
18:00+24вюв512565 0.0 1013573
21:00+20вюв5166818 0.0 1013381
19 мая, ср
ср1900:00+17вюв514755 0.0 1013289
03:00+16юв4147621 0.0 1014323
06:00+18вюв5157969 0.0 1013415
09:00+23юв611621 0.0 1014652
12:00+27юв612464 0.0 10131568
15:00+28юв710470 0.0 10131993
18:00+24юв612610 0.0 1012747
21:00+21вюв614730 0.0 1013546
20 мая, чт
чт2000:00+17вюв514810 0.0 1013371
03:00+15вюв412810 0.0 1013278
06:00+16вюв513790 0.0 1012376
09:00+22вюв611620 0.0 1011664
12:00+24юв7115696 0.0 10101404
15:00+24юв812610 0.3 10101737
18:00+21ююв61173100 1.0 10101071
21:00+17ююв31094100 2.5 1011272
21 мая, пт
пт2100:00+15ююв310955 0.6 1011294
03:00+13ююв4109611 0.6 1011305
06:00+14ююв4109563 0.0 1012415
09:00+18ююв687298 0.0 10111126
12:00+21ююв695120 0.1 10102008
15:00+15ююз71482100 0.8 1010905
18:00+15ю5118599 1.1 1009948
21:00+12ююз61389100 2.0 1009876